Tracking 29747 objects as of 9-Oct-2024
HD Live streaming from Space Station
objects crossing your sky now

DELTA 1 DEB

Track DELTA 1 DEB now!
10-day predictions


NORAD ID: 21369
Int'l Code: 1975-052CP
Perigee: 665.4 km
Apogee: 752.6 km
Inclination: 99.7 °
Period: 98.8 minutes
Semi major axis: 7080 km
RCS: 0.052 m2 (small)
Launch date: June 12, 1975
Source: United States (US)
Launch site: AIR FORCE WESTERN TEST RANGE (AFWTR)

Note: This is SATELLITE DEBRIS
Your satellite tracking list
Your tracking list is empty




NASA's NSSDC Master Catalog

Two Line Element Set (TLE):
1 21369U 75052CP  24282.48734894  .00151101  00000-0  31841-1 0  9992
2 21369  99.6611 274.9981 0061581  43.6675  86.8709 14.57309583705192
Source of the keplerian elements: AFSPC